sat.trackr.live / text

‹ back to catalog

ARSAT 1

NORAD 40272 · 2014-062B

PAYLOAD ACTIVE UNKNOWN

§ Identity

Operator
Country
ARGN
Launch date
2014-10-16
Launch site
FRGUI
Launch vehicle
Mass (kg)
RCS (m²)
85.74

Purposes: comms

External: N2YO · Heavens-Above · Gunter

§ Orbital elements

Epoch: 2026-05-25T03:55:30.549792Z

Period
1,436.10 min
Inclination
0.0491°
Eccentricity
0.0001826
Mean motion
1.00271249 rev/d
Perigee alt
35,779.0 km
Apogee alt
35,794.4 km
Semi-major
42,164.9 km
B*
0.0000e+0
RAAN
76.0279°
Arg perigee
337.3905°
Mean anomaly
176.4077°
Rev number
4,239

§ Raw data

ARSAT 11 40272U 14062B   26145.16354803 -.00000262  00000+0  00000+0 0  99952 40272   0.0491  76.0279 0001826 337.3905 176.4077  1.00271249 42395

JSON: /api/v1/satellites/40272 · /tle

For live sub-satellite position, see the globe view (requires WebGL).

§ Visibility from observer

Set your observer location to see the next 7 days of passes ≥ 10°. The values pass through the URL so the page stays shareable.

No JS? Fill the form by hand. The geolocation button needs JavaScript.